Regional Weather Roundup
Issued by NWS

Home | Current Version | Previous Version | Graphics & Text | Print | Product List | Glossary On
Versions: 1 2 3 4 5 6 7 8 9 10 11 12 13 14 15 16 17 18 19 20 21 22 23 24 25 26 27 28 29 30 31 32 33 34 35 36 37 38 39 40 41 42 43 44 45 46 47 48 49 50
000
ASUS43 KDTX 051201
RWRMI
MICHIGAN HOURLY REGIONAL WEATHER ROUNDUP
NATIONAL WEATHER SERVICE DETROIT/PONTIAC MI
700 AM EST THU MAR 05 2015

NOTE: "FAIR" INDICATES FEW OR NO CLOUDS BELOW 12,000 FEET WITH NO
SIGNIFICANT WEATHER AND/OR OBSTRUCTION TO VISIBILITY.

MIZ047>049-052>055-059>063-066>070-074>076-081>083-051300-
SOUTHEAST LOWER MICHIGAN

CITY           SKY/WX    TMP DP  RH WIND       PRES   REMARKS
ADRIAN         PTCLDY     7  -2  66 N5        30.33S WCI  -2
6HR MIN TEMP:   7; 6HR MAX TEMP:  15;

ALMA           PTCLDY    -1  -7  77 CALM      30.36S
ANN ARBOR      MOCLDY     7  -1  70 NE8       30.31S WCI  -6
BAD AXE        MOCLDY    -1  -7  75 W3        30.34R
CARO           PTCLDY    -3  -8  79 NW5       30.34F WCI -13
DETROIT CITY   PTCLDY     9  -2  61 NE7       30.35R WCI  -2
6HR MIN TEMP:   9; 6HR MAX TEMP:  18;

DETROIT        CLOUDY    10   0  63 N9        30.34R WCI  -3
6HR MIN TEMP:  10; 6HR MAX TEMP:  16;

FLINT          MOCLDY     3  -5  69 NW3       30.34S
6HR MIN TEMP:  -1; 6HR MAX TEMP:  12;

GROSSE ILE     MOCLDY    10   0  61 NE9       30.33R WCI  -2
HILLSDALE      PTCLDY     1  -7  69 CALM      30.32R
HOWELL         CLEAR      2  -3  79 CALM      30.32S
6HR MIN TEMP:   0; 6HR MAX TEMP:  12;


CITY           SKY/WX    TMP DP  RH WIND       PRES   REMARKS
JACKSON        PTCLDY     3  -3  76 N3        30.32R
6HR MIN TEMP:   3; 6HR MAX TEMP:  13;

LAMBERTVILLE   PTCLDY    14   3  62 CALM      30.33F
LANSING        MOCLDY     1  -5  75 CALM      30.35S
6HR MIN TEMP:  -1; 6HR MAX TEMP:  10;

LAPEER         FAIR      -7 -12  81 CALM      30.33R
MASON          CLEAR      0  -5  79 CALM      30.33R
MONROE         MOCLDY     9   1  72 CALM      30.31F
MT. CLEMENS    PTCLDY     4  -3  72 N3        30.33R
6HR MIN TEMP:   4; 6HR MAX TEMP:  15;

PONTIAC        MOCLDY     3  -3  76 N3        30.30R
6HR MIN TEMP:   3; 6HR MAX TEMP:  13;

PORT HOPE        N/A      7  -2  66 NW7       30.32R WCI  -5
6HR MIN TEMP:   6; 6HR MAX TEMP:   9;

PORT HURON     MOCLDY     3  -6  66 NW5       30.33F WCI  -6
TRI CITIES     MOCLDY     4  -7  60 NW5       30.37R WCI  -5
6HR MIN TEMP:   3; 6HR MAX TEMP:   9;

TROY           PTCLDY     9  -2  61 N6        30.36R WCI  -1
SAGINAW HB     PTCLDY     3  -4  72 NW5       30.37R WCI  -6
$$
MIZ043>046-050>051-056>058-064>065-071>073-077>080-051300-
SOUTHWEST LOWER MICHIGAN

CITY           SKY/WX    TMP DP  RH WIND       PRES   REMARKS
BATTLE CREEK   PTCLDY     7  -3  64 CALM      30.34R
6HR MIN TEMP:   5; 6HR MAX TEMP:  13;

BENTON HARBOR  LGT SNOW  10   5  80 E3        30.38R
6HR MIN TEMP:  10; 6HR MAX TEMP:  16; 6HR PCP: TRACE;

BIG RAPIDS     CLEAR     -9 -13  83 CALM      30.33R
6HR MIN TEMP:  -9; 6HR MAX TEMP:   5;

COLDWATER      PTCLDY     0  -6  74 CALM      30.33R
6HR MIN TEMP:   0; 6HR MAX TEMP:  14;

FREMONT        CLOUDY    -3  -8  80 CALM      30.35F
HOLLAND        CLOUDY     8   0  69 E9        30.37R WCI  -5
6HR MIN TEMP:   7; 6HR MAX TEMP:  15; 6HR PCP: TRACE;

GRAND RAPIDS   MOCLDY     5  -2  72 NE5       30.36R WCI  -4
6HR MIN TEMP:   5; 6HR MAX TEMP:  10;

IONIA          FAIR       3  -3  74 NE3       30.35S
KALAMAZOO      CLOUDY     6  -1  73 CALM      30.36R
6HR MIN TEMP:   0; 6HR MAX TEMP:  13;

LUDINGTON      CLOUDY     7   1  77 CALM      30.37S
6HR MIN TEMP:   6; 6HR MAX TEMP:  13;

MARSHALL       PTCLDY    -3  -9  78 CALM      30.33R
MOUNT PLEASANT PTCLDY    -4  -8  82 CALM      30.35F
MUSKEGON       CLOUDY     6  -2  69 E7        30.38R WCI  -6
6HR MIN TEMP:   6; 6HR MAX TEMP:  12; 6HR PCP: TRACE;

SOUTH HAVEN    CLOUDY    11   5  76 CALM      30.37R
$$
MIZ016>042-051300-
NORTHERN LOWER MICHIGAN

CITY           SKY/WX    TMP DP  RH WIND       PRES   REMARKS
ALPENA         CLEAR     -6 -10  83 W3        30.34R
6HR MIN TEMP:  -6; 6HR MAX TEMP:   0;

BEAVER ISLAND  CLEAR    -14 -18  81 CALM      30.35R
6HR MIN TEMP: -15; 6HR MAX TEMP:   1;

BELLAIRE       CLEAR    -18 -23  75 CALM      30.37S
6HR MIN TEMP: -18; 6HR MAX TEMP:  -7;

CADILLAC       CLEAR    -16 -22  75 CALM      30.28R
CHARLEVOIX     CLEAR    -11 -15  81 CALM      30.37S
6HR MIN TEMP: -11; 6HR MAX TEMP:   2;

FRANKFORT      LGT SNOW   4   1  86 CALM      30.37R
GAYLORD        CLEAR    -14 -21  71 CALM      30.26R HAZE
6HR MIN TEMP: -19; 6HR MAX TEMP:  -2;

GRAYLING       CLEAR    -22 -29  71 CALM      30.30S HAZE
6HR MIN TEMP: -25; 6HR MAX TEMP: -10;

HARBOR SPRINGS CLEAR    -12 -16  82 CALM      30.33R
HOUGHTON LAKE  CLEAR    -15 -20  78 CALM      30.31R
6HR MIN TEMP: -15; 6HR MAX TEMP:  -3;

MANISTEE       MOCLDY     5   0  78 SE3       30.36R
OSCODA         PTCLDY    -7 -13  75 W5        30.35R WCI -18
PELLSTON       CLEAR    -19 -24  77 CALM      30.34R
6HR MIN TEMP: -24; 6HR MAX TEMP:  -4;

ROGERS CITY    CLOUDY    -2  -6  84 W7        30.34R WCI -16
TRAVERSE CITY  MOCLDY    -9 -15  75 CALM      30.35R
6HR MIN TEMP:  -9; 6HR MAX TEMP:   1;

$$
MIZ007>008-015-051300-
EASTERN UPPER MICHIGAN

CITY           SKY/WX    TMP DP  RH WIND       PRES   REMARKS
KINROSS        PTCLDY   -13 -17  84 W3        30.31R
6HR MIN TEMP: -13; 6HR MAX TEMP:  -6;

MACKINAC ISLAN CLEAR     -4  -8  83 NW3       30.32R
6HR MIN TEMP:  -5; 6HR MAX TEMP:  -2;

NEWBERRY       PTCLDY   -13 -14  93 W5        30.31R WCI -25
6HR MIN TEMP: -17; 6HR MAX TEMP:  -5;

S. S. MARIE    PTCLDY   -13 -19  75 E3        30.31R
6HR MIN TEMP: -14; 6HR MAX TEMP:  -2;

MUNISING         N/A     -1  -7  75 S6        30.34R WCI -13
6HR MIN TEMP:  -5; 6HR MAX TEMP:   3;

$$
MIZ004>006-011>014-085-051300-
CENTRAL UPPER MICHIGAN

CITY           SKY/WX    TMP DP  RH WIND       PRES   REMARKS
MANISTIQUE     PTCLDY   -12 -16  84 NW3       30.34R
ESCANABA       CLEAR     -8  -8 100 NW6       30.37S WCI -21
6HR MIN TEMP:  -8; 6HR MAX TEMP:  -4;

MENOMINEE      CLEAR     -8 -15  71 CALM      30.37S
6HR MIN TEMP:  -8; 6HR MAX TEMP:   0;

SAWYER-GWINN   CLEAR    -11 -17  77 W7        30.28R WCI -26
$$
MIZ001>003-009>011-084-051300-
WESTERN UPPER MICHIGAN

CITY           SKY/WX    TMP DP  RH WIND       PRES   REMARKS
IRON MOUNTAIN  CLEAR    -16 -21  78 CALM      30.31R
6HR MIN TEMP: -16; 6HR MAX TEMP:  -6;

HOUGHTON       FAIR     -21 -25  81 W5        30.28S WCI -34
6HR MIN TEMP: -21; 6HR MAX TEMP:  -7;

COPPER HARBOR    N/A     -5 -12  72 W7        30.32S WCI -19
6HR MIN TEMP:  -6; 6HR MAX TEMP:   3;

IRONWOOD       CLEAR     -9 -18  64 SW5       30.30S WCI -21
6HR MIN TEMP: -11; 6HR MAX TEMP:  -2;

$$

ABBREVIATIONS USED IN REMARKS
   TC - TEMPERATURE IN CELSIUS
  WCI - WIND CHILL INDEX
   HX - HEAT INDEX
  VSB - VISIBILITY




USA.gov is the U.S. government's official web portal to all federal, state and local government web resources and services.